Location: Venise Bay
(45.0825°N, 73.1481°W)
Time: 05:05:18
(UTC-05:00)

Envisat - Visible Passes

Search period start: 20 January 2022 00:00
Search period end: 30 January 2022 00:00
Orbit: 764 x 766 km, 98.2° (Epoch: 19 January)

Date Brightness Start Highest point End Pass type
(mag) Time Alt. Az. Time Alt. Az. Time Alt. Az.
20 Jan 3.1 04:44:47 10° NNE 04:49:53 73° ESE 04:54:57 10° S visible
20 Jan 4.4 06:25:09 10° NNW 06:28:19 17° WNW 06:31:28 10° W visible
21 Jan 4.5 04:08:15 10° NNE 04:12:52 34° E 04:17:27 10° SSE visible
21 Jan 3.6 05:47:20 10° N 05:51:50 33° WNW 05:56:19 10° SW visible
22 Jan 5.6 03:32:33 10° NE 03:35:38 16° E 03:38:43 10° SE visible
22 Jan 2.9 05:10:05 10° N 05:15:08 68° WNW 05:20:11 10° SSW visible
22 Jan 4.8 06:52:29 10° NW 06:53:12 10° NW 06:53:54 10° WNW visible
23 Jan 3.5 04:33:14 10° NNE 04:38:16 57° E 04:43:16 10° S visible
23 Jan 4.2 06:13:10 10° NNW 06:16:51 21° WNW 06:20:32 10° WSW visible
23 Jan 6.3 17:32:44 10° WSW 17:34:24 11° W 17:36:03 10° WNW visible
24 Jan 4.9 03:56:53 10° NE 04:01:11 27° E 04:05:27 10° SSE visible
24 Jan 3.3 05:35:35 10° N 05:40:18 40° WNW 05:45:02 10° SW visible
25 Jan 5.9 03:21:46 10° ENE 03:23:54 12° E 03:26:02 10° ESE visible
25 Jan 2.8 04:58:28 10° NNE 05:03:35 84° WNW 05:08:39 10° SSW visible
25 Jan 4.7 06:39:35 10° NNW 06:41:47 13° WNW 06:44:00 10° W visible
26 Jan 3.9 04:21:44 10° NNE 04:26:38 45° E 04:31:29 10° S visible
26 Jan 3.9 06:01:17 10° N 06:05:23 25° WNW 06:09:29 10° WSW visible
26 Jan 6.0 17:19:49 10° WSW 17:22:38 15° W 17:25:28 10° NW visible
27 Jan 5.2 03:45:37 10° NE 03:49:30 22° E 03:53:21 10° SE visible
27 Jan 3.1 05:23:52 10° N 05:28:47 50° WNW 05:33:40 10° SW visible
28 Jan 3.0 04:46:52 10° NNE 04:51:59 78° ESE 04:57:03 10° S visible
28 Jan 4.5 06:27:22 10° NNW 06:30:22 16° WNW 06:33:21 10° W visible
29 Jan 4.4 04:10:17 10° NNE 04:14:59 36° E 04:19:38 10° SSE visible
29 Jan 3.7 05:49:28 10° N 05:53:53 31° WNW 05:58:18 10° SW visible
